[[{"header":{"parameterUnit":"m.s-1","parameterCategory":2,"la1":30.2991,"la2":30.254,"lo1":-89.0895,"lo2":-89.0444,"dy":0.0017,"dx":0.0017,"nx":28,"ny":28,"refTime":"2023-08-10T21:00:00:Z","depth":"0","parameterNumber":2,"parameterNumberName":"U-component_of_CURRENTS"},"data":[0,0,0,0,0,0,0,0,0,0,0,0,0,0,0,0,0,0,0,0,0,0,0,0,0,0,0,0,0,0,0,0,0,0,0,0,0,0,0,0,0,0,0,0,0,0,0,0,0,0,0,0,0,0,0,0,0,0,0.3831,0.3833,0,0.3962,0.3963,0.3964,0.3971,0.397,0.3969,0.3968,0.4014,0.4016,0.4019,0,0,0,0,0,0,0,0,0,0,0,0,0,0.3649,0.3651,0.3831,0.3833,0.3835,0.3961,0.3963,0.3964,0.3971,0.397,0.3968,0.3967,0.4013,0.4016,0.4019,0,0,0,0,0,0,0,0,0,0,0,0,0,0.3745,0.3652,0.383,0.3856,0.386,0.3961,0.3963,0.3965,0.3972,0.397,0.3968,0.3966,0.4013,0.4016,0.4019,0.4076,0,0,0.403,0.4032,0,0,0,0,0,0,0,0,0.3739,0.3751,0.385,0.3855,0.3859,0.3951,0.3916,0.3999,0.3972,0.3925,0.3968,0.3966,0.3989,0.3995,0.4019,0.4078,0.408,0.403,0.4033,0.4034,0.4035,0,0,0,0,0,0,0,0.3733,0.3746,0.3879,0.3853,0.3858,0.3883,0.3893,0.3932,0.3961,0.3929,0.3931,0.3952,0.399,0.4016,0.402,0.4081,0.403,0.4033,0.4036,0.4037,0.4243,0.4246,0,0,0,0,0,0,0.3723,0.374,0.3875,0.3883,0.3798,0.3887,0.3899,0.3921,0.3963,0.3969,0.3953,0.3952,0.401,0.4016,0.4021,0.4092,0.4034,0.4037,0.4039,0.4239,0.4243,0.4247,0,0,0,0,0,0,0.3719,0.3734,0.3869,0.3817,0.3836,0.3892,0.3916,0.3924,0.3949,0.3983,0.3986,0.397,0.4009,0.4016,0.4072,0.4093,0.4039,0.4042,0.4235,0.4241,0.4245,0.4232,0,0,0,0,0,0,0.3713,0.3732,0.374,0.3816,0.3839,0.3929,0.3919,0.3928,0.3966,0.3965,0.3998,0.4001,0.4008,0.4067,0.4075,0.4097,0.4045,0.4231,0.4238,0.4244,0.4229,0.4236,0.4243,0,0,0,0,0,0.3706,0.3724,0.3739,0.3756,0.385,0.3931,0.3944,0.3975,0.3969,0.3988,0.4019,0.4,0.4113,0.4072,0.4082,0.4105,0.4228,0.4236,0.4243,0.4225,0.4235,0.4243,0,0,0,0,0,0,0.3642,0.3729,0.3747,0.3788,0.3855,0.3933,0.3956,0.3982,0.4024,0.402,0.4037,0.4044,0.4113,0.4124,0.4078,0.4192,0.4171,0.4181,0.4154,0.4164,0.4171,0.4232,0.4048,0,0,0,0,0,0.3637,0.3675,0.376,0.3794,0.3826,0.3893,0.3927,0.3958,0.4011,0.4027,0.4054,0.4097,0.4157,0.4166,0.4226,0.4271,0.4354,0.4301,0.4308,0.4313,0.4377,0.4494,0.4517,0.4272,0.4272,0.4272,0,0,0.3623,0.3676,0.3697,0.3784,0.3835,0.3891,0.3908,0.3971,0.4012,0.4027,0.408,0.4132,0.4186,0.425,0.4279,0.4248,0.4432,0.4323,0.4326,0.4389,0.4505,0.4528,0.4549,0.4277,0.4276,0.4275,0,0,0.3627,0.3662,0.3702,0.3755,0.3842,0.3891,0.391,0.3996,0.4024,0.409,0.413,0.4223,0.4257,0.4339,0.4372,0.4468,0.4484,0.4447,0.4504,0.4614,0.4634,0.4654,0.4798,0.483,0.4425,0.4425,0.4425,0,0.36,0.366,0.3725,0.3776,0.3807,0.3889,0.3927,0.399,0.4081,0.4112,0.4102,0.4262,0.4324,0.4435,0.4489,0.4488,0.4545,0.4444,0.462,0.4641,0.4661,0.4805,0.4841,0.4425,0.4425,0.4425,0.4425,0,0.3646,0.3681,0.3708,0.3792,0.3839,0.3888,0.3976,0.403,0.4065,0.4126,0.4241,0.4348,0.4445,0.4475,0.4518,0.4683,0.4679,0.4626,0.4585,0.4685,0.483,0.4868,0.4425,0.4425,0.4425,0.4425,0,0,0.3606,0.3713,0.372,0.3747,0.3841,0.3889,0.3958,0.4049,0.4107,0.4197,0.4276,0.4449,0.4517,0.4575,0.4638,0.4759,0.4984,0.4754,0.4759,0.4879,0.5243,0.5143,0.5174,0.4913,0.4919,0.4924,0.5289,0,0.3612,0.3692,0.3738,0.3793,0.3835,0.3898,0.396,0.4052,0.4127,0.4232,0.4366,0.448,0.454,0.4601,0.4741,0.4943,0.508,0.4893,0.5151,0.5162,0.5041,0.5214,0.4958,0.5251,0.5326,0.5332,0.5337,0,0.3638,0.3684,0.3731,0.3797,0.3819,0.3856,0.395,0.4015,0.4173,0.4232,0.4363,0.4473,0.4735,0.473,0.513,0.4986,0.5151,0.5283,0.5296,0.5246,0.5131,0.5167,0.5317,0.5174,0.5395,0.539,0.5386,0,0.3597,0.3673,0.37,0.3721,0.3818,0.3831,0.3878,0.4008,0.4067,0.4241,0.4318,0.4573,0.4736,0.4974,0.5283,0.5214,0.5687,0.5603,0.5671,0.5666,0.5536,0.5507,0.5567,0.5882,0.5881,0.588,0.5879,0,0.3588,0.3609,0.368,0.3694,0.3723,0.3794,0.3844,0.3922,0.4054,0.4151,0.4322,0.4465,0.4804,0.5086,0.5325,0.5645,0.5724,0.5772,0.5773,0.5523,0.549,0.5426,0.5318,0.5894,0.5891,0.5888,0.5886,0,0.355,0.3598,0.362,0.3686,0.3701,0.3715,0.3785,0.3847,0.397,0.4104,0.4165,0.4461,0.4811,0.5131,0.5569,0.5703,0.584,0.6067,0.5775,0.5733,0.5602,0.5502,0.5468,0.5329,0.6232,0.6232,0.6232,0,0.3561,0.3563,0.3586,0.3591,0.3608,0.364,0.3677,0.3781,0.3851,0.4101,0.4179,0.452,0.4749,0.5332,0.5626,0.6011,0.5828,0.5973,0.5806,0.5634,0.5526,0.5295,0.5163,0.5659,0.5655,0.5651,0.5648,0,0.3559,0.3538,0.3552,0.3544,0.3556,0.3574,0.3632,0.3668,0.3823,0.3956,0.4175,0.4364,0.485,0.5119,0.5561,0.5758,0.5624,0.5902,0.5799,0.5178,0.4862,0.471,0.5408,0.5613,0.5617,0.5619,0.5621,0.5622,0.3558,0.3541,0.354,0.3527,0.3517,0.3519,0.3517,0.3603,0.3698,0.3872,0.4097,0.4331,0.4655,0.5218,0.5374,0.5435,0.5426,0.5364,0.5303,0.5126,0.4822,0.5464,0.5584,0.5587,0.5589,0.5592,0.5594,0,0.3628,0.3584,0.3545,0.351,0.3461,0.3482,0.3508,0.35,0.3573,0.3767,0.3944,0.4234,0.4475,0.4729,0.4944,0.4881,0.47,0.4778,0.4399,0.4338,0.5008,0.4807,0.4665,0.4665,0.4665,0.4665,0.4665,0.4666,0.3677,0.3652,0.3601,0.3496,0.3446,0.339,0.3389,0.3366,0.3449,0.3543,0.3682,0.3858,0.415,0.4385,0.4396,0.435,0.4057,0.3879,0.393,0.4384,0.4432,0.4478,0.4267,0.4014,0.4013,0.3082,0.3074,0.3069]},{"header":{"parameterUnit":"m.s-1","parameterCategory":2,"la1":30.2991,"la2":30.254,"lo1":-89.0895,"lo2":-89.0444,"dy":0.0017,"dx":0.0017,"nx":28,"ny":28,"refTime":"2023-08-10T21:00:00:Z","depth":"0","parameterNumber":3,"parameterNumberName":"V-component_of_CURRENTS"},"data":[0,0,0,0,0,0,0,0,0,0,0,0,0,0,0,0,0,0,0,0,0,0,0,0,0,0,0,0,0,0,0,0,0,0,0,0,0,0,0,0,0,0,0,0,0,0,0,0,0,0,0,0,0,0,0,0,0,0,-0.023,-0.0231,0,-0.0303,-0.0304,-0.0304,-0.0389,-0.039,-0.0392,-0.0393,-0.0494,-0.0496,-0.0497,0,0,0,0,0,0,0,0,0,0,0,0,0,-0.0182,-0.0182,-0.023,-0.0231,-0.0232,-0.0303,-0.0304,-0.0305,-0.0389,-0.039,-0.0392,-0.0394,-0.0494,-0.0495,-0.0497,0,0,0,0,0,0,0,0,0,0,0,0,0,-0.0222,-0.0182,-0.023,-0.0284,-0.029,-0.0303,-0.0304,-0.0305,-0.0388,-0.039,-0.0393,-0.0395,-0.0493,-0.0495,-0.0497,-0.0467,0,0,-0.0503,-0.0504,0,0,0,0,0,0,0,0,-0.022,-0.0223,-0.0275,-0.028,-0.0287,-0.034,-0.0324,-0.0361,-0.0388,-0.0349,-0.0393,-0.0396,-0.0445,-0.0451,-0.0457,-0.0472,-0.0476,-0.0504,-0.0505,-0.0506,-0.0506,0,0,0,0,0,0,0,-0.0217,-0.0221,-0.0258,-0.0276,-0.0283,-0.0311,-0.0318,-0.0331,-0.0383,-0.0353,-0.0359,-0.0369,-0.0448,-0.0455,-0.046,-0.0478,-0.0504,-0.0505,-0.0507,-0.0508,-0.0441,-0.0438,0,0,0,0,0,0,-0.0207,-0.0218,-0.0255,-0.026,-0.0259,-0.031,-0.0318,-0.032,-0.0383,-0.0395,-0.0367,-0.0373,-0.0451,-0.0458,-0.0464,-0.0391,-0.0506,-0.0508,-0.0509,-0.0444,-0.044,-0.0437,0,0,0,0,0,0,-0.0206,-0.0209,-0.0252,-0.0243,-0.025,-0.0308,-0.0309,-0.032,-0.0328,-0.0394,-0.0407,-0.0365,-0.0452,-0.0461,-0.0456,-0.0398,-0.0509,-0.0511,-0.0447,-0.0442,-0.0438,-0.0272,0,0,0,0,0,0,-0.0204,-0.0208,-0.0194,-0.0241,-0.0251,-0.0243,-0.0308,-0.032,-0.0332,-0.034,-0.0395,-0.0408,-0.0455,-0.0452,-0.0458,-0.0403,-0.0512,-0.0451,-0.0445,-0.044,-0.0281,-0.0262,-0.0246,0,0,0,0,0,-0.0202,-0.0171,-0.0192,-0.0197,-0.0233,-0.0242,-0.0247,-0.0296,-0.0329,-0.0314,-0.0349,-0.0406,-0.0421,-0.0451,-0.0459,-0.0403,-0.0454,-0.0447,-0.044,-0.0289,-0.0266,-0.0246,0,0,0,0,0,0,-0.0132,-0.0178,-0.0203,-0.0185,-0.0206,-0.0257,-0.0245,-0.0281,-0.0296,-0.0304,-0.0371,-0.0383,-0.0355,-0.0397,-0.0429,-0.0365,-0.0444,-0.0438,-0.0326,-0.0305,-0.0288,-0.0234,-0.0514,0,0,0,0,0,-0.0111,-0.0108,-0.0151,-0.0134,-0.0139,-0.0188,-0.0195,-0.0229,-0.0256,-0.0267,-0.0302,-0.0329,-0.0329,-0.0334,-0.0348,-0.0313,-0.0329,-0.028,-0.0262,-0.0247,-0.0206,-0.0187,-0.0163,-0.0414,-0.0414,-0.0415,0,0,-0.008,-0.0104,-0.0102,-0.012,-0.014,-0.0121,-0.0197,-0.0197,-0.0172,-0.0272,-0.0237,-0.027,-0.0306,-0.0266,-0.0256,-0.0297,-0.0181,-0.0238,-0.0225,-0.0192,-0.0177,-0.0153,-0.0131,-0.041,-0.0411,-0.0411,0,0,-0.0014,-0.0034,-0.0009,-0.0016,-0.004,-0.0064,-0.0058,-0.0093,-0.0097,-0.0074,-0.0127,-0.0109,-0.0134,-0.0126,-0.013,-0.0017,-0.0089,-0.004,0.0094,0.0112,0.0133,0.0151,0.0173,0.0192,-0.0031,-0.003,-0.003,0,0.0027,0.0049,0.0002,0.0029,0.0041,-0.0029,0.0018,0.0013,-0.0014,0.0016,-0.0041,-0.0008,-0.0051,0.0034,0.0065,0.0028,0.0014,0.0013,0.0136,0.0154,0.017,0.0187,0.0206,-0.0021,-0.0022,-0.0023,-0.0024,0,0.0112,0.013,0.0152,0.0161,0.0175,0.02,0.0185,0.0209,0.019,0.0186,0.0256,0.0216,0.0239,0.0229,0.0176,0.0282,0.0228,0.0154,0.0084,0.0205,0.0216,0.0233,-0.0009,-0.0012,-0.0014,-0.0017,0,0,0.0199,0.0208,0.0215,0.0247,0.0247,0.0271,0.0336,0.0386,0.0452,0.0437,0.0536,0.054,0.0514,0.0511,0.0457,0.0474,0.0564,0.0368,0.0364,0.0394,0.0606,0.0534,0.0544,0.0492,0.0496,0.0499,0.0572,0,0.0281,0.0351,0.0342,0.0432,0.0473,0.0462,0.0537,0.0576,0.0595,0.0671,0.0666,0.0722,0.062,0.0639,0.0649,0.0583,0.0613,0.0552,0.0482,0.0481,0.0405,0.0563,0.0475,0.053,0.0587,0.059,0.0592,0,0.0374,0.0404,0.0494,0.0574,0.0598,0.0649,0.0766,0.0824,0.0906,0.0927,0.0984,0.0956,0.1018,0.0888,0.0887,0.0843,0.0758,0.0696,0.0695,0.0588,0.0441,0.0415,0.0556,0.0268,0.0616,0.0614,0.0612,0,0.0451,0.0525,0.06,0.0622,0.0694,0.0762,0.0818,0.0907,0.099,0.1094,0.1167,0.12,0.1239,0.1155,0.1021,0.0957,0.0992,0.0879,0.0753,0.0746,0.0643,0.0621,0.0505,0.0898,0.0898,0.0898,0.0898,0,0.0539,0.0605,0.064,0.068,0.0811,0.0843,0.0996,0.1058,0.1175,0.1316,0.1301,0.1425,0.1303,0.1289,0.1128,0.1014,0.1079,0.0837,0.0782,0.0698,0.0681,0.0398,0.0262,0.0901,0.09,0.09,0.0899,0,0.0602,0.0622,0.0715,0.0799,0.0841,0.0933,0.1084,0.1202,0.1297,0.1483,0.153,0.1618,0.1625,0.1478,0.1368,0.1173,0.0895,0.0975,0.089,0.0824,0.0412,0.0291,0.0208,0.0116,0.0875,0.0874,0.0873,0,0.0641,0.0683,0.0783,0.0855,0.0894,0.1026,0.1135,0.1249,0.1378,0.1616,0.1726,0.1807,0.1897,0.1717,0.1398,0.1149,0.0906,0.0867,0.0734,0.0435,0.0259,0.0184,0.0108,0.0669,0.0667,0.0665,0.0663,0,0.0711,0.0732,0.0801,0.0933,0.1047,0.1192,0.1351,0.1467,0.1642,0.1824,0.2073,0.2172,0.2013,0.1766,0.1389,0.116,0.0652,0.0817,0.0534,0.0143,0.0033,-0.01,0.057,0.0646,0.0647,0.0649,0.065,0.065,0.0762,0.0819,0.0904,0.1037,0.1175,0.1363,0.1512,0.1702,0.1947,0.2258,0.2314,0.2509,0.2044,0.1549,0.1201,0.0452,0.055,0.0199,0.01,0.007,-0.0085,0.0558,0.0537,0.0538,0.0539,0.054,0.054,0,0.0825,0.0893,0.1017,0.1187,0.1349,0.1411,0.1672,0.1851,0.2163,0.2432,0.266,0.2487,0.1911,0.1285,0.03,-0.0204,-0.0358,-0.0469,-0.0626,-0.0651,-0.007,-0.0155,-0.0361,-0.0361,-0.036,-0.036,-0.036,-0.0359,0.0873,0.0982,0.1043,0.1307,0.1438,0.1693,0.1855,0.2132,0.2366,0.268,0.2773,0.2806,0.2201,0.0509,-0.0686,-0.0937,-0.1227,-0.1282,-0.137,-0.1067,-0.1014,-0.0964,-0.1079,-0.1475,-0.1476,-0.1937,-0.1942,-0.1946]}],[{"header":{"parameterUnit":"m.s-1","parameterCategory":2,"la1":30.2991,"la2":30.254,"lo1":-89.0895,"lo2":-89.0444,"dy":0.0017,"dx":0.0017,"nx":28,"ny":28,"refTime":"2023-08-10T21:00:00:Z","depth":"2","parameterNumber":2,"parameterNumberName":"U-component_of_CURRENTS"},"data":[0,0,0,0,0,0,0,0,0,0,0,0,0,0,0,0,0,0,0,0,0,0,0,0,0,0,0,0,0,0,0,0,0,0,0,0,0,0,0,0,0,0,0,0,0,0,0,0,0,0,0,0,0,0,0,0,0,0,0.1518,0.1518,0,0.156,0.1561,0.1563,0.1645,0.1645,0.1646,0.1646,0.1898,0.1904,0.191,0,0,0,0,0,0,0,0,0,0,0,0,0,0.1351,0.1356,0.1518,0.1518,0.1517,0.1559,0.1561,0.1563,0.1645,0.1645,0.1646,0.1646,0.1896,0.1903,0.1911,0,0,0,0,0,0,0,0,0,0,0,0,0,0.1424,0.1357,0.1518,0.1553,0.1556,0.1559,0.1561,0.1564,0.1645,0.1645,0.1646,0.1646,0.1893,0.1903,0.1912,0.1956,0,0,0.1941,0.1945,0,0,0,0,0,0,0,0,0.142,0.1432,0.1549,0.1551,0.1554,0.1586,0.1594,0.1701,0.1644,0.1624,0.1646,0.1647,0.1805,0.1821,0.1843,0.1968,0.1979,0.1941,0.1947,0.1951,0.1954,0,0,0,0,0,0,0,0.1415,0.1429,0.1548,0.1548,0.1551,0.1511,0.1526,0.1614,0.1724,0.1626,0.1629,0.1613,0.1809,0.1833,0.185,0.1983,0.1941,0.195,0.1955,0.1959,0.2374,0.2379,0,0,0,0,0,0,0.1393,0.1426,0.1546,0.1548,0.1472,0.1514,0.153,0.1586,0.1719,0.1734,0.1612,0.1616,0.1817,0.1838,0.1859,0.2116,0.1951,0.196,0.1965,0.2369,0.2375,0.2381,0,0,0,0,0,0,0.139,0.1406,0.1544,0.1472,0.1485,0.1516,0.1578,0.1586,0.1671,0.1703,0.1726,0.1694,0.1818,0.1846,0.2019,0.2119,0.1964,0.1973,0.2362,0.2371,0.2378,0.2506,0,0,0,0,0,0,0.1387,0.1407,0.148,0.1474,0.1488,0.1594,0.1576,0.1586,0.1649,0.1658,0.178,0.1799,0.1821,0.2005,0.2028,0.213,0.198,0.2356,0.2366,0.2376,0.2495,0.2517,0.2537,0,0,0,0,0,0.1382,0.1433,0.1486,0.15,0.1578,0.1595,0.1604,0.163,0.1653,0.171,0.181,0.1799,0.2084,0.2018,0.2043,0.215,0.2351,0.2363,0.2375,0.2486,0.2513,0.2536,0,0,0,0,0,0,0.1446,0.1446,0.1502,0.1575,0.1616,0.1606,0.1637,0.1672,0.1791,0.1821,0.1873,0.1903,0.2089,0.2111,0.2035,0.2301,0.2215,0.2232,0.229,0.2316,0.2337,0.2323,0.1988,0,0,0,0,0,0.1485,0.1496,0.154,0.1602,0.1627,0.1661,0.1684,0.1714,0.178,0.1834,0.1931,0.2039,0.2148,0.2225,0.2319,0.2471,0.2461,0.2557,0.2578,0.2595,0.2605,0.2725,0.2757,0.2421,0.2421,0.242,0,0,0.1506,0.1521,0.1527,0.161,0.164,0.1698,0.1683,0.1731,0.1815,0.1846,0.2035,0.2124,0.2207,0.2377,0.2461,0.2416,0.2675,0.261,0.2624,0.2625,0.2741,0.2774,0.2802,0.2429,0.2427,0.2426,0,0,0.1512,0.1602,0.1609,0.1661,0.1717,0.1745,0.1781,0.1853,0.1933,0.2099,0.2152,0.2309,0.2478,0.2564,0.2619,0.2817,0.2782,0.2859,0.296,0.3078,0.3105,0.3129,0.3095,0.3116,0.287,0.287,0.287,0,0.1552,0.1616,0.1622,0.1675,0.1729,0.1782,0.1858,0.1935,0.2073,0.217,0.2182,0.2478,0.256,0.2751,0.2832,0.2863,0.2877,0.2849,0.3101,0.3126,0.3148,0.3108,0.3129,0.2878,0.2877,0.2876,0.2875,0,0.1566,0.1661,0.1673,0.1765,0.1832,0.1897,0.1996,0.2124,0.2231,0.2319,0.2559,0.2676,0.2844,0.291,0.294,0.316,0.3094,0.3108,0.3023,0.3189,0.3136,0.3155,0.2889,0.2886,0.2883,0.2882,0,0,0.1574,0.1656,0.1685,0.1767,0.1901,0.1951,0.2113,0.2279,0.2404,0.2576,0.2749,0.297,0.304,0.3109,0.3177,0.3296,0.3459,0.3292,0.3294,0.3229,0.3631,0.3338,0.3328,0.3537,0.3543,0.3548,0.3503,0,0.1619,0.1692,0.1752,0.1906,0.1982,0.2109,0.2253,0.2417,0.2562,0.2748,0.2896,0.3084,0.3108,0.3215,0.3343,0.3449,0.353,0.3463,0.3505,0.3503,0.3203,0.335,0.3228,0.316,0.3521,0.3524,0.3526,0,0.1665,0.1712,0.1824,0.2005,0.2058,0.2176,0.2424,0.2563,0.2803,0.2917,0.3105,0.3206,0.3418,0.3409,0.3623,0.3589,0.3631,0.3675,0.3675,0.3374,0.325,0.3072,0.3181,0.3558,0.3555,0.3553,0.3551,0,0.1652,0.1803,0.1885,0.1948,0.2135,0.2267,0.2412,0.2648,0.2775,0.3043,0.3142,0.3368,0.3494,0.3624,0.3694,0.3708,0.3859,0.3872,0.3614,0.3586,0.3471,0.3423,0.402,0.402,0.402,0.402,0.402,0,0.1682,0.1784,0.1898,0.1957,0.2125,0.229,0.2502,0.2668,0.2891,0.3043,0.3237,0.336,0.3582,0.367,0.3724,0.3679,0.3871,0.3636,0.3593,0.3498,0.3456,0.3805,0.3781,0.4018,0.4018,0.4019,0.4019,0,0.167,0.173,0.1853,0.2041,0.2116,0.2258,0.2514,0.2643,0.2873,0.3063,0.3153,0.3396,0.3515,0.3589,0.3764,0.3672,0.3686,0.3615,0.3392,0.3321,0.3316,0.33,0.3343,0.3333,0.3324,0.3317,0.3312,0,0.1635,0.1688,0.187,0.1938,0.2042,0.2246,0.2369,0.2617,0.2727,0.3062,0.3122,0.332,0.3383,0.3411,0.3383,0.3316,0.3471,0.3086,0.3097,0.3312,0.3266,0.3263,0.3258,0.2983,0.2974,0.2968,0.2963,0,0.1588,0.1674,0.1762,0.1905,0.2038,0.2147,0.2346,0.2409,0.2695,0.2843,0.3044,0.3139,0.3183,0.3084,0.2941,0.2905,0.3082,0.2934,0.3338,0.3122,0.2956,0.2914,0.2927,0.2904,0.2909,0.2914,0.2917,0.2919,0.1538,0.1637,0.1762,0.1891,0.1992,0.2063,0.2149,0.2321,0.247,0.2658,0.2782,0.2853,0.2849,0.2577,0.2489,0.2462,0.2628,0.2568,0.2599,0.2634,0.255,0.2375,0.219,0.2191,0.2193,0.2194,0.2195,0,0.1463,0.1629,0.1744,0.1875,0.1893,0.2019,0.2128,0.2164,0.2311,0.2423,0.2515,0.2263,0.2173,0.223,0.211,0.1999,0.2108,0.1936,0.2143,0.22,0.2251,0.2159,0.1689,0.1687,0.1685,0.1683,0,0,0.1442,0.157,0.1677,0.173,0.1825,0.1885,0.1941,0.2037,0.2106,0.2037,0.2061,0.2054,0.2164,0.1881,0.1823,0.1783,0.1992,0.1725,0.2143,0.245,0.25,0.2626,0.2543,0,0,0,0,0]},{"header":{"parameterUnit":"m.s-1","parameterCategory":2,"la1":30.2991,"la2":30.254,"lo1":-89.0895,"lo2":-89.0444,"dy":0.0017,"dx":0.0017,"nx":28,"ny":28,"refTime":"2023-08-10T21:00:00:Z","depth":"2","parameterNumber":3,"parameterNumberName":"V-component_of_CURRENTS"},"data":[0,0,0,0,0,0,0,0,0,0,0,0,0,0,0,0,0,0,0,0,0,0,0,0,0,0,0,0,0,0,0,0,0,0,0,0,0,0,0,0,0,0,0,0,0,0,0,0,0,0,0,0,0,0,0,0,0,0,-0.0372,-0.0373,0,-0.0403,-0.0403,-0.0403,-0.0512,-0.0514,-0.0517,-0.0519,-0.0662,-0.0664,-0.0665,0,0,0,0,0,0,0,0,0,0,0,0,0,-0.0342,-0.0342,-0.0372,-0.0373,-0.0373,-0.0402,-0.0403,-0.0403,-0.0511,-0.0514,-0.0517,-0.052,-0.0661,-0.0663,-0.0665,0,0,0,0,0,0,0,0,0,0,0,0,0,-0.0362,-0.0342,-0.0372,-0.043,-0.0435,-0.0402,-0.0403,-0.0404,-0.0511,-0.0514,-0.0518,-0.0521,-0.0661,-0.0663,-0.0666,-0.0608,0,0,-0.0673,-0.0674,0,0,0,0,0,0,0,0,-0.0361,-0.0364,-0.0421,-0.0426,-0.0432,-0.0456,-0.0445,-0.0477,-0.051,-0.0483,-0.0519,-0.0523,-0.06,-0.0608,-0.0605,-0.0615,-0.0621,-0.0673,-0.0674,-0.0675,-0.0676,0,0,0,0,0,0,0,-0.036,-0.0362,-0.0385,-0.0421,-0.0427,-0.0431,-0.0439,-0.0451,-0.0524,-0.0485,-0.0493,-0.0494,-0.0605,-0.0603,-0.061,-0.0623,-0.0673,-0.0675,-0.0676,-0.0677,-0.0711,-0.0711,0,0,0,0,0,0,-0.0354,-0.0361,-0.0384,-0.0386,-0.0404,-0.0429,-0.0438,-0.0445,-0.0522,-0.0535,-0.0491,-0.0499,-0.0597,-0.0607,-0.0615,-0.0609,-0.0675,-0.0678,-0.0679,-0.0712,-0.0711,-0.0711,0,0,0,0,0,0,-0.0353,-0.0356,-0.0383,-0.0373,-0.0377,-0.0426,-0.0434,-0.0444,-0.0471,-0.0524,-0.0542,-0.0511,-0.06,-0.0612,-0.0646,-0.0614,-0.0679,-0.0681,-0.0713,-0.0712,-0.0711,-0.0559,0,0,0,0,0,0,-0.0352,-0.0355,-0.0357,-0.0373,-0.0378,-0.0364,-0.0431,-0.0442,-0.0464,-0.0475,-0.0546,-0.0561,-0.0604,-0.0642,-0.0649,-0.0618,-0.0683,-0.0713,-0.0712,-0.0711,-0.0565,-0.0553,-0.0544,0,0,0,0,0,-0.0351,-0.0333,-0.0357,-0.036,-0.038,-0.0362,-0.0364,-0.0411,-0.0461,-0.0453,-0.0516,-0.0561,-0.0642,-0.0643,-0.0651,-0.062,-0.0714,-0.0713,-0.0711,-0.057,-0.0556,-0.0544,0,0,0,0,0,0,-0.0307,-0.0342,-0.037,-0.0362,-0.0364,-0.0381,-0.0378,-0.041,-0.0447,-0.0478,-0.0543,-0.056,-0.0584,-0.0624,-0.0624,-0.0633,-0.0688,-0.0689,-0.0578,-0.0566,-0.0555,-0.0504,-0.0685,0,0,0,0,0,-0.0298,-0.0304,-0.0326,-0.0314,-0.0322,-0.0352,-0.0354,-0.0385,-0.0417,-0.0439,-0.0483,-0.054,-0.0574,-0.0591,-0.063,-0.0615,-0.0666,-0.0609,-0.0598,-0.0588,-0.0555,-0.0595,-0.0584,-0.0707,-0.0707,-0.0707,0,0,-0.027,-0.0294,-0.0292,-0.0305,-0.0321,-0.0295,-0.0364,-0.0365,-0.034,-0.0446,-0.0439,-0.0505,-0.0568,-0.0566,-0.0579,-0.0598,-0.0588,-0.0587,-0.0577,-0.0549,-0.0593,-0.058,-0.0569,-0.0706,-0.0706,-0.0706,0,0,-0.0207,-0.0247,-0.0231,-0.023,-0.0251,-0.0261,-0.0263,-0.0285,-0.0302,-0.0296,-0.0377,-0.0416,-0.0457,-0.0484,-0.0507,-0.0457,-0.0539,-0.0487,-0.0373,-0.0412,-0.0401,-0.0392,-0.0469,-0.0468,-0.047,-0.047,-0.047,0,-0.0175,-0.0161,-0.0214,-0.0192,-0.0178,-0.0243,-0.0199,-0.0205,-0.023,-0.0219,-0.0285,-0.034,-0.0407,-0.0388,-0.0383,-0.0426,-0.0481,-0.041,-0.0394,-0.0386,-0.0379,-0.046,-0.046,-0.0462,-0.0463,-0.0464,-0.0465,0,-0.0091,-0.0085,-0.0071,-0.007,-0.0056,-0.0032,-0.0046,-0.0038,-0.0076,-0.008,-0.0087,-0.0173,-0.0203,-0.0236,-0.0293,-0.0271,-0.0339,-0.0382,-0.0415,-0.0357,-0.0447,-0.045,-0.0452,-0.0454,-0.0457,-0.0458,0,0,-0.0019,-0.0014,-0.0011,0.0012,0.0005,0.0034,0.0077,0.0115,0.0161,0.0109,0.0167,0.0086,0.0025,-0.0006,-0.0091,-0.0121,-0.0148,-0.022,-0.0225,-0.0274,-0.0264,-0.035,-0.0364,-0.0189,-0.0188,-0.0187,-0.0355,0,0.0058,0.0126,0.0112,0.0196,0.0226,0.0204,0.0267,0.0289,0.0287,0.0328,0.0244,0.025,0.0118,0.0101,0.0048,-0.0085,-0.0145,-0.01,-0.033,-0.0337,-0.0403,-0.0365,-0.029,-0.0435,-0.0359,-0.036,-0.0361,0,0.0128,0.0168,0.0255,0.0322,0.0338,0.0389,0.0472,0.0524,0.056,0.0556,0.0538,0.0469,0.0422,0.0291,0.0101,0.0133,-0.0052,-0.0173,-0.0183,-0.0308,-0.0428,-0.0479,-0.0445,-0.0367,-0.0367,-0.0366,-0.0366,0,0.0182,0.0261,0.0337,0.0359,0.0432,0.0483,0.0533,0.0591,0.0657,0.0705,0.0749,0.0664,0.0632,0.0425,0.0138,0.013,-0.0097,-0.0144,-0.0404,-0.0415,-0.0414,-0.0426,-0.029,-0.029,-0.029,-0.0289,-0.0289,0,0.0243,0.03,0.037,0.0412,0.0538,0.056,0.0691,0.0738,0.0816,0.0929,0.0864,0.0917,0.0667,0.0499,0.0213,-0.0112,-0.0057,-0.0369,-0.0446,-0.0367,-0.0372,-0.0358,-0.0364,-0.0296,-0.0294,-0.0293,-0.0292,0,0.026,0.03,0.04,0.051,0.0553,0.0641,0.0779,0.0886,0.095,0.1092,0.1118,0.1103,0.0907,0.0584,0.0252,-0.0003,-0.0315,-0.0468,-0.0381,-0.0444,-0.0625,-0.0621,-0.0715,-0.0719,-0.0722,-0.0725,-0.0728,0,0.0269,0.0321,0.0468,0.0553,0.0601,0.0732,0.084,0.0933,0.1052,0.1208,0.1292,0.1185,0.1078,0.0552,0.0137,-0.0367,-0.0428,-0.0624,-0.0616,-0.0594,-0.0661,-0.0651,-0.0643,-0.0577,-0.0577,-0.0578,-0.0579,0,0.031,0.0359,0.0454,0.0632,0.0756,0.0909,0.1063,0.1168,0.1313,0.1429,0.1559,0.1485,0.1038,0.0596,-0.0071,-0.0373,-0.0524,-0.0657,-0.0633,-0.0483,-0.0477,-0.0539,-0.0532,-0.0586,-0.0585,-0.0585,-0.0584,-0.0584,0.0352,0.0428,0.0571,0.0741,0.0894,0.1096,0.1232,0.1407,0.1598,0.1725,0.1641,0.149,0.1005,0.0147,-0.0256,-0.0596,-0.0628,-0.078,-0.0771,-0.0763,-0.0719,-0.0719,-0.0868,-0.0869,-0.0869,-0.087,-0.0871,0,0.0433,0.0521,0.0685,0.0904,0.1092,0.1148,0.1402,0.1548,0.1789,0.1747,0.1715,0.1167,0.0642,0.0174,-0.0327,-0.0711,-0.066,-0.0804,-0.0656,-0.065,-0.0644,-0.0586,-0.0705,-0.0705,-0.0705,-0.0705,0,0,0.0488,0.0646,0.0741,0.1052,0.1194,0.1446,0.159,0.181,0.1861,0.1781,0.1593,0.1157,0.0638,0.0251,-0.0199,-0.0404,-0.0425,-0.0441,-0.0546,-0.0311,-0.0299,-0.062,-0.0526,0,0,0,0,0]}],[{"header":{"parameterUnit":"m.s-1","parameterCategory":2,"la1":30.2991,"la2":30.254,"lo1":-89.0895,"lo2":-89.0444,"dy":0.0017,"dx":0.0017,"nx":28,"ny":28,"refTime":"2023-08-10T21:00:00:Z","depth":"4","parameterNumber":2,"parameterNumberName":"U-component_of_CURRENTS"},"data":[0,0,0,0,0,0,0,0,0,0,0,0,0,0,0,0,0,0,0,0,0,0,0,0,0,0,0,0,0,0,0,0,0,0,0,0,0,0,0,0,0,0,0,0,0,0,0,0,0,0,0,0,0,0,0,0,0,0,0.0473,0.0473,0,0.0535,0.0536,0.0536,0.059,0.0591,0.0592,0.0592,0.0661,0.0662,0.0664,0,0,0,0,0,0,0,0,0,0,0,0,0,0.0382,0.0383,0.0472,0.0473,0.0474,0.0535,0.0536,0.0536,0.059,0.0591,0.0592,0.0593,0.0661,0.0662,0.0664,0,0,0,0,0,0,0,0,0,0,0,0,0,0.0429,0.0384,0.0472,0.051,0.0514,0.0535,0.0536,0.0537,0.059,0.0591,0.0592,0.0593,0.0661,0.0662,0.0664,0.0651,0,0,0.0669,0.067,0,0,0,0,0,0,0,0,0.0426,0.0432,0.0503,0.0507,0.0512,0.0558,0.0529,0.0576,0.0589,0.0559,0.0592,0.0594,0.0628,0.0632,0.0638,0.0654,0.0657,0.0669,0.067,0.0671,0.0671,0,0,0,0,0,0,0,0.0423,0.0429,0.0495,0.0504,0.051,0.0518,0.0526,0.0538,0.0584,0.0562,0.0566,0.0576,0.063,0.0637,0.0641,0.0658,0.0669,0.0671,0.0672,0.0672,0.0739,0.074,0,0,0,0,0,0,0.0419,0.0426,0.0493,0.0497,0.0473,0.0519,0.0527,0.054,0.0584,0.0593,0.0575,0.0578,0.0633,0.0639,0.0643,0.0705,0.0671,0.0672,0.0673,0.0739,0.074,0.074,0,0,0,0,0,0,0.0417,0.0424,0.0491,0.0465,0.0474,0.0519,0.0533,0.0541,0.0575,0.0595,0.0603,0.0604,0.0634,0.0641,0.0681,0.0706,0.0673,0.0675,0.0738,0.0739,0.074,0.0781,0,0,0,0,0,0,0.0414,0.0423,0.0446,0.0464,0.0475,0.0522,0.0533,0.0541,0.0578,0.0584,0.0622,0.0628,0.0636,0.0678,0.0683,0.0707,0.0676,0.0737,0.0738,0.074,0.0779,0.0784,0.0788,0,0,0,0,0,0.041,0.0427,0.0447,0.0456,0.0501,0.0523,0.0529,0.0563,0.0579,0.0597,0.0626,0.0628,0.0691,0.0681,0.0685,0.0711,0.0736,0.0738,0.074,0.0777,0.0783,0.0788,0,0,0,0,0,0,0.0399,0.0435,0.0457,0.0486,0.0514,0.0533,0.0556,0.0575,0.061,0.0622,0.064,0.0648,0.0689,0.0692,0.0681,0.0733,0.0713,0.0716,0.074,0.0745,0.075,0.0754,0.0677,0,0,0,0,0,0.0407,0.0436,0.0465,0.0493,0.0506,0.0535,0.0555,0.0575,0.0601,0.062,0.0648,0.0673,0.0693,0.0715,0.073,0.0762,0.0757,0.078,0.0785,0.0788,0.0794,0.08,0.0805,0.0746,0.0746,0.0746,0,0,0.0411,0.0436,0.0454,0.0494,0.0517,0.0541,0.055,0.0581,0.061,0.0619,0.0674,0.0689,0.0703,0.074,0.0759,0.0753,0.0804,0.0791,0.0794,0.0798,0.0802,0.0808,0.0813,0.0748,0.0747,0.0747,0,0,0.042,0.0454,0.0479,0.0503,0.0544,0.056,0.0573,0.0607,0.0636,0.068,0.0692,0.0722,0.0764,0.0777,0.0788,0.0823,0.0822,0.0835,0.087,0.0876,0.088,0.0885,0.0892,0.0896,0.0844,0.0844,0.0844,0,0.0427,0.0462,0.0489,0.0515,0.0541,0.057,0.0596,0.0623,0.067,0.0695,0.0706,0.0765,0.0778,0.0814,0.0835,0.0834,0.0841,0.085,0.0881,0.0885,0.0889,0.0895,0.09,0.0846,0.0846,0.0845,0.0845,0,0.0446,0.0485,0.0498,0.0547,0.0575,0.0601,0.0637,0.0673,0.071,0.0738,0.079,0.0808,0.0847,0.0854,0.0863,0.0899,0.0897,0.0881,0.0868,0.0897,0.0902,0.0906,0.0849,0.0848,0.0848,0.0847,0,0,0.043,0.05,0.0509,0.0542,0.0595,0.0617,0.0665,0.0713,0.0752,0.0797,0.0846,0.0882,0.0901,0.0914,0.0923,0.0934,0.0968,0.0933,0.0932,0.094,0.0992,0.0988,0.0991,0.0965,0.0965,0.0966,0.0987,0,0.0441,0.0496,0.0529,0.0586,0.0615,0.0658,0.0701,0.075,0.0796,0.085,0.0874,0.0927,0.0921,0.0956,0.0963,0.0968,0.098,0.0964,0.0962,0.0962,0.0954,0.0996,0.0969,0.099,0.0991,0.0992,0.0992,0,0.0446,0.0487,0.0542,0.0616,0.0633,0.0673,0.0748,0.0794,0.0863,0.0901,0.0949,0.0979,0.1021,0.1005,0.1024,0.1022,0.1018,0.101,0.101,0.0994,0.0965,0.0952,0.0999,0.0998,0.0998,0.0997,0.0997,0,0.0417,0.0495,0.0543,0.0568,0.065,0.069,0.0743,0.0815,0.0865,0.0949,0.0993,0.1033,0.1072,0.1069,0.1076,0.1062,0.1085,0.1052,0.1037,0.1036,0.1013,0.1009,0.1059,0.1059,0.1058,0.1058,0.1058,0,0.0407,0.0446,0.054,0.0565,0.063,0.0695,0.0771,0.0824,0.091,0.0965,0.1028,0.1067,0.1094,0.1115,0.1098,0.1092,0.1103,0.1056,0.1047,0.1031,0.1028,0.1016,0.1011,0.1059,0.1059,0.1059,0.1059,0,0.0362,0.0423,0.048,0.058,0.0618,0.0669,0.0791,0.0838,0.093,0.1003,0.1041,0.1114,0.1146,0.1158,0.1159,0.1128,0.1115,0.1106,0.1108,0.1095,0.1054,0.1051,0.1088,0.1088,0.1088,0.1088,0.1088,0,0.0343,0.0368,0.0479,0.0524,0.0575,0.0668,0.0724,0.0835,0.0885,0.1014,0.1034,0.1119,0.1153,0.1149,0.116,0.1148,0.1129,0.1127,0.1076,0.1073,0.106,0.1057,0.1053,0.1088,0.1088,0.1088,0.1088,0,0.0297,0.034,0.0388,0.0482,0.0554,0.0632,0.0726,0.0764,0.0885,0.0964,0.1031,0.1079,0.1116,0.1127,0.1148,0.1122,0.1132,0.1127,0.1126,0.1078,0.1074,0.106,0.1057,0.1089,0.1089,0.1089,0.1089,0,0.0262,0.0283,0.0355,0.0435,0.0523,0.0591,0.0646,0.0727,0.08,0.0942,0.0953,0.1033,0.1097,0.1115,0.1116,0.1123,0.1096,0.1061,0.1062,0.1062,0.1047,0.1038,0.1047,0,0,0,0,0,0.0226,0.025,0.031,0.0403,0.0488,0.0538,0.0644,0.0698,0.0807,0.0838,0.0908,0.0944,0.1002,0.1037,0.1035,0.1091,0.1085,0.1086,0.1041,0.1091,0.1091,0.1077,0,0,0,0,0,0,0.0208,0.025,0.0284,0.0364,0.0417,0.0502,0.0565,0.0632,0.0666,0.0775,0.0801,0.0897,0.0944,0.0979,0.1011,0.1026,0.0987,0.114,0.1139,0.1091,0.1091,0.1091,0.1077,0,0,0,0,0]},{"header":{"parameterUnit":"m.s-1","parameterCategory":2,"la1":30.2991,"la2":30.254,"lo1":-89.0895,"lo2":-89.0444,"dy":0.0017,"dx":0.0017,"nx":28,"ny":28,"refTime":"2023-08-10T21:00:00:Z","depth":"4","parameterNumber":3,"parameterNumberName":"V-component_of_CURRENTS"},"data":[0,0,0,0,0,0,0,0,0,0,0,0,0,0,0,0,0,0,0,0,0,0,0,0,0,0,0,0,0,0,0,0,0,0,0,0,0,0,0,0,0,0,0,0,0,0,0,0,0,0,0,0,0,0,0,0,0,0,0.006,0.0059,0,-0.0028,-0.0029,-0.003,-0.007,-0.007,-0.007,-0.007,-0.0168,-0.0171,-0.0173,0,0,0,0,0,0,0,0,0,0,0,0,0,0.016,0.0159,0.006,0.0059,0.0058,-0.0028,-0.0029,-0.003,-0.007,-0.007,-0.007,-0.007,-0.0167,-0.017,-0.0174,0,0,0,0,0,0,0,0,0,0,0,0,0,0.0099,0.0158,0.006,0.0028,0.0024,-0.0027,-0.0029,-0.0031,-0.007,-0.007,-0.007,-0.007,-0.0166,-0.017,-0.0174,-0.0203,0,0,-0.0187,-0.0188,0,0,0,0,0,0,0,0,0.0102,0.0095,0.0034,0.003,0.0026,-0.0038,-0.003,-0.0089,-0.007,-0.0035,-0.007,-0.007,-0.0125,-0.0133,-0.015,-0.0208,-0.0212,-0.0187,-0.019,-0.0191,-0.0192,0,0,0,0,0,0,0,0.0107,0.0098,0.0025,0.0033,0.0028,0.0007,-0.0002,-0.0041,-0.0081,-0.0038,-0.0041,-0.005,-0.0128,-0.0146,-0.0153,-0.0213,-0.0187,-0.0191,-0.0193,-0.0195,-0.0348,-0.0349,0,0,0,0,0,0,0.012,0.0102,0.0028,0.0022,0.0066,0.0005,-0.0005,-0.0018,-0.008,-0.0089,-0.005,-0.0052,-0.0139,-0.0148,-0.0156,-0.0226,-0.0191,-0.0195,-0.0197,-0.0346,-0.0348,-0.035,0,0,0,0,0,0,0.0122,0.0114,0.0031,0.0061,0.0049,0.0003,-0.0012,-0.002,-0.0047,-0.0089,-0.0098,-0.007,-0.0139,-0.0151,-0.0209,-0.0229,-0.0197,-0.0201,-0.0344,-0.0347,-0.0349,-0.0344,0,0,0,0,0,0,0.0125,0.0115,0.0104,0.0062,0.0048,-0.0004,-0.0012,-0.0021,-0.0052,-0.0055,-0.0109,-0.0118,-0.014,-0.0203,-0.0213,-0.0234,-0.0204,-0.0342,-0.0345,-0.0348,-0.0342,-0.0346,-0.035,0,0,0,0,0,0.0129,0.0114,0.0104,0.0095,0.0036,-0.0005,-0.0015,-0.0046,-0.0053,-0.007,-0.0112,-0.0116,-0.0229,-0.0208,-0.0219,-0.0241,-0.0341,-0.0345,-0.0348,-0.0341,-0.0346,-0.035,0,0,0,0,0,0,0.0144,0.0107,0.0096,0.0068,0.0033,-0.0012,-0.0032,-0.0051,-0.0098,-0.0104,-0.0139,-0.0152,-0.021,-0.0231,-0.0207,-0.0297,-0.0285,-0.0291,-0.0276,-0.0281,-0.0284,-0.0283,-0.0207,0,0,0,0,0,0.0146,0.0128,0.0088,0.0064,0.0048,0.0007,-0.0015,-0.0037,-0.008,-0.01,-0.0138,-0.0185,-0.0234,-0.026,-0.0304,-0.0353,-0.0374,-0.0377,-0.038,-0.0383,-0.0392,-0.0444,-0.0452,-0.0362,-0.0362,-0.0362,0,0,0.0143,0.0122,0.0109,0.0067,0.0038,0.0007,-0.0006,-0.0042,-0.0072,-0.0104,-0.0159,-0.02,-0.0252,-0.0309,-0.0336,-0.0328,-0.0418,-0.0388,-0.0389,-0.0397,-0.0448,-0.0457,-0.0464,-0.0364,-0.0364,-0.0364,0,0,0.0132,0.0112,0.0093,0.0068,0.0027,0.0001,-0.0009,-0.0059,-0.0085,-0.0141,-0.0175,-0.0231,-0.0299,-0.0343,-0.0373,-0.0426,-0.0437,-0.0438,-0.0454,-0.0503,-0.051,-0.0517,-0.0542,-0.0551,-0.0437,-0.0437,-0.0437,0,0.0129,0.0102,0.008,0.0057,0.0033,0.0,-0.0028,-0.0062,-0.0126,-0.0154,-0.0158,-0.028,-0.0317,-0.0396,-0.0416,-0.0433,-0.0455,-0.0427,-0.0506,-0.0513,-0.052,-0.0544,-0.0554,-0.0437,-0.0437,-0.0437,-0.0437,0,0.0103,0.0082,0.0068,0.0031,0.0004,-0.0026,-0.0067,-0.0102,-0.0133,-0.0171,-0.0252,-0.0312,-0.0384,-0.0404,-0.0428,-0.0503,-0.0499,-0.0502,-0.0487,-0.0528,-0.0552,-0.0562,-0.0438,-0.0438,-0.0438,-0.0438,0,0,0.0089,0.0057,0.0051,0.0039,-0.0011,-0.0034,-0.0081,-0.0137,-0.0171,-0.0233,-0.029,-0.038,-0.0411,-0.0449,-0.0488,-0.0533,-0.0595,-0.0539,-0.0541,-0.055,-0.0691,-0.0626,-0.0631,-0.0609,-0.0611,-0.0613,-0.0682,0,0.007,0.0044,0.0022,-0.0013,-0.0031,-0.0069,-0.0108,-0.0159,-0.0208,-0.0268,-0.0337,-0.0406,-0.0428,-0.0466,-0.0518,-0.0577,-0.0625,-0.0575,-0.0663,-0.0665,-0.0591,-0.0642,-0.062,-0.069,-0.0692,-0.0694,-0.0695,0,0.0047,0.0035,0.0009,-0.0023,-0.0037,-0.0064,-0.0125,-0.0165,-0.0249,-0.0289,-0.0367,-0.0422,-0.0512,-0.0517,-0.0639,-0.0605,-0.0656,-0.0694,-0.0698,-0.0648,-0.062,-0.0647,-0.0714,-0.0713,-0.0712,-0.071,-0.0709,0,0.0062,0.0024,0.0011,-0.0002,-0.0047,-0.007,-0.0101,-0.0174,-0.0204,-0.0305,-0.0336,-0.0453,-0.0502,-0.0593,-0.0666,-0.0664,-0.078,-0.0784,-0.0776,-0.077,-0.0807,-0.08,-0.088,-0.088,-0.088,-0.088,-0.088,0,0.0055,0.0039,0.0021,0.0013,-0.0007,-0.0051,-0.0089,-0.0136,-0.0205,-0.0238,-0.0343,-0.0387,-0.0524,-0.06,-0.0676,-0.0744,-0.0789,-0.0792,-0.0793,-0.0802,-0.0794,-0.0814,-0.0805,-0.0883,-0.0882,-0.0881,-0.0881,0,0.0066,0.0054,0.0043,0.0012,0.0005,-0.0009,-0.0052,-0.0082,-0.015,-0.0195,-0.0225,-0.0345,-0.0441,-0.0555,-0.0694,-0.0735,-0.082,-0.0835,-0.0822,-0.0819,-0.0779,-0.077,-0.085,-0.0848,-0.0847,-0.0846,-0.0845,0,0.0067,0.0065,0.0062,0.0066,0.0052,0.003,0.0015,-0.0046,-0.007,-0.0157,-0.0171,-0.0282,-0.0362,-0.0499,-0.0629,-0.077,-0.0783,-0.0829,-0.0832,-0.0787,-0.0781,-0.0774,-0.0767,-0.0843,-0.0842,-0.0842,-0.0842,0,0.0066,0.0071,0.007,0.0093,0.0091,0.0082,0.0061,0.0055,-0.0012,-0.0059,-0.0118,-0.022,-0.0321,-0.0461,-0.0565,-0.0669,-0.0805,-0.0816,-0.082,-0.0824,-0.078,-0.0774,-0.0768,-0.0837,-0.0838,-0.0838,-0.0838,0,0.0068,0.0076,0.0091,0.0108,0.0118,0.012,0.0106,0.008,0.0053,-0.0026,-0.0037,-0.0173,-0.0262,-0.0408,-0.0505,-0.0597,-0.0629,-0.066,-0.0673,-0.068,-0.0606,-0.0524,-0.0516,0,0,0,0,0,0.0064,0.0079,0.01,0.0121,0.0138,0.0142,0.0128,0.0108,0.0071,0.0052,0.0007,-0.0082,-0.0243,-0.0332,-0.0411,-0.0494,-0.0654,-0.059,-0.0699,-0.0812,-0.0817,-0.0753,0,0,0,0,0,0,0.0063,0.0083,0.01,0.013,0.015,0.0159,0.0152,0.0126,0.0111,0.0068,-0.0014,-0.0076,-0.0234,-0.018,-0.0399,-0.0434,-0.051,-0.0675,-0.0676,-0.0809,-0.0814,-0.0818,-0.0754,0,0,0,0,0]}]]